Flag for Spain Weather past 2 weeks in Santander, Spain

Now
61 °F

Clear.


Feels Like: 61 °F
Forecast: 62 / 73 °F
Wind: No wind

Location: Santander / Parayas

Current Time: Jul 23, 2014 at 7:59:13 AM

Latest Report: Jul 23, 2014 at 7:30 AM


Visibility: 5 mi

Pressure: 29.98 "Hg

Humidity: 94%

Dew point: 59 °F

Location of SantanderLocation

Historic Weather in Santander — Graph

°F

Santander temperature yesterday

Maximum temperature yesterday: 73 °F (at 12:00 PM)
Minimum temperature yesterday: 57 °F (at 5:30 AM)
Average temperature yesterday: 67 °F

Past Weeks' High & Low Weather Summary

 TemperatureHumidityPressure
High84 °F (Jul 17, 5:30 PM)100% (Jul 15, 6:00 AM)30.27 "Hg (Jul 15, 6:00 AM)
Low57 °F (Jul 8, 8:30 AM)32% (Jul 17, 5:00 PM)29.74 "Hg (Jul 19, 12:00 PM)
Average67 °F77%30.09 "Hg
* Reported Jul 8 6:00 AM — Jul 23 6:30 AM, Santander, Weather by CustomWeather, © 2014

Note: Actual official high and low records may vary slightly from our data, if they occured in-between our weather recording intervals... More about our weather records

Advertising

Santander weather history for previous 24 hours

 ConditionsComfort  
Time TempWeatherWind HumidityBarometerVisibility
6:30 AM
Jul 23
61 °FPassing clouds.No wind94%29.98 "HgN/A
6:00 AM61 °FPassing clouds.No wind94%29.98 "HgN/A
5:30 AM61 °FPassing clouds.No wind94%29.98 "HgN/A
7:00 PM
Jul 22
73 °FPassing clouds.12 mph61%30.07 "HgN/A
6:30 PM73 °FPassing clouds.10 mph61%30.07 "HgN/A
6:00 PM73 °FPassing clouds.13 mph61%30.07 "HgN/A
5:30 PM73 °FPassing clouds.10 mph61%30.07 "HgN/A
5:00 PM73 °FPassing clouds.13 mph61%30.07 "HgN/A
4:30 PM73 °FPassing clouds.10 mph65%30.07 "HgN/A
4:00 PM72 °FPassing clouds.16 mph69%30.09 "HgN/A
3:30 PM70 °FPassing clouds.18 mph78%30.09 "HgN/A
3:00 PM70 °FPassing clouds.17 mph78%30.09 "HgN/A
2:30 PM70 °FPassing clouds.18 mph73%30.09 "HgN/A
2:00 PM70 °FPassing clouds.16 mph73%30.09 "HgN/A
1:30 PM70 °FPassing clouds.16 mph73%30.12 "HgN/A
1:00 PM70 °FPassing clouds.14 mph73%30.12 "HgN/A
12:30 PM73 °FPassing clouds.12 mph57%30.12 "HgN/A
12:00 PM73 °FPassing clouds.7 mph61%30.12 "HgN/A
11:30 AM72 °FPassing clouds.6 mph61%30.12 "HgN/A
11:00 AM68 °FPassing clouds.2 mph73%30.15 "HgN/A
10:30 AM66 °FPassing clouds.2 mph78%30.15 "HgN/A
10:00 AM66 °FPassing clouds.No wind78%30.15 "HgN/A
9:30 AM63 °FPassing clouds.No wind88%30.15 "HgN/A
9:00 AM61 °FPassing clouds.No wind94%30.15 "HgN/A
8:30 AM59 °FScattered clouds.No wind94%30.15 "HgN/A
8:00 AM57 °FPassing clouds.No wind100%30.15 "HgN/A
7:30 AM57 °FPassing clouds.No wind100%30.15 "HgN/A
7:00 AM57 °FPassing clouds.No wind94%30.15 "HgN/A
Weather by CustomWeather, © 2014

See weather overviewHow to use our weather pages